Location: Arapaho Elementary School
(32.9607°N, 96.7625°W)
Time: 18:47:06
(UTC+00:00)

H-2A R/B (2) - Pass Details

Date: 01 July 2022
Orbit: 428 x 34396 km, 28.9° (Epoch: 07 August)

Event Time Altitude Azimuth Distance (km) Brightness Sun altitude
Rises 06:02:13 0° 124° (SE) 35,167 10.1 -33.5°
Reaches altitude 10° 07:25:42 10° 126° (SE) 38,617 10.4 -32.4°
Maximum altitude 11:41:57 38° 127° (SE) 20,585 9.6 2.8°
Drops below altitude 10° 12:41:34 10° 87° (E) 9,875 9.6 14.4°
Sets 12:46:54 0° 80° (E) 9,352 9.3 15.5°
